Tracking 17152 objects as of 28-April-2015
HD Live streaming from Space Station

COSMOS 482 DESCENT CRAFT

Track COSMOS 482 DESCENT CRAFT now!
10-day predictions
COSMOS 482 DESCENT CRAFT is classified as:


NORAD ID: 6073
Int'l Code: 1972-023E
Perigee: 211.3 km
Apogee: 2,972.4 km
Inclination: 52.1 °
Period: 117.9 minutes
Semi major axis: 7962 km
RCS: 0.7153 m2 (medium)
Launch date: March 31, 1972
Source: Commonwealth of Independent States (former USSR) (CIS)
Your satellite tracking list
Your tracking list is empty




NASA's NSSDC Master Catalog

Two Line Element Set (TLE):
1 06073U 72023E   15118.15363775  .00038746  46252-5  20685-3 0  9999
2 06073 052.0730 001.0210 1733758 346.5925 119.2182 12.21805275263836

Source of the keplerian elements: AFSPC

N2YO: 395